• In Netherlands
  • List of Countries
  • For 7 days
  • Water Temperature
  • Satellite Maps
  • Weather Map
  • Weather Widgets
  • user-avatar
    Login

    Hourly Weather Rawson

    Today, 25 May, Thursday

    Time Temperature Precipitation Wind Pressure Humidity
    00:00 +5°C° 0 mm 7 mps 758 mmHg 50%
    01:00 +5°C° 0 mm 7 mps 758 mmHg 51%
    02:00 +5°C° 0 mm 7 mps 757 mmHg 52%
    03:00 +4°C° 0 mm 7 mps 757 mmHg 53%
    04:00 +4°C° 0 mm 7 mps 757 mmHg 53%
    05:00 +4°C° 0 mm 7 mps 757 mmHg 54%
    06:00 +4°C° 0 mm 7 mps 757 mmHg 54%
    07:00 +4°C° 0 mm 7 mps 757 mmHg 55%
    08:00 +4°C° 0 mm 7 mps 757 mmHg 56%
    09:00 +6°C° 0 mm 8 mps 757 mmHg 51%
    10:00 +8°C° 0 mm 9 mps 757 mmHg 47%
    11:00 +11°C° 0 mm 10 mps 757 mmHg 43%
    12:00 +11°C° 0 mm 10 mps 757 mmHg 41%
    13:00 +11°C° 0 mm 10 mps 757 mmHg 40%
    14:00 +12°C° 0 mm 10 mps 757 mmHg 38%
    15:00 +11°C° 0 mm 9 mps 757 mmHg 41%
    16:00 +10°C° 0 mm 8 mps 757 mmHg 43%
    17:00 +9°C° 0 mm 7 mps 757 mmHg 45%
    18:00 +9°C° 0 mm 7 mps 757 mmHg 49%
    19:00 +8°C° 0 mm 7 mps 758 mmHg 52%
    20:00 +6°C° 0 mm 7 mps 758 mmHg 55%
    21:00 +6°C° 0 mm 7 mps 759 mmHg 57%
    22:00 +6°C° 0 mm 8 mps 759 mmHg 60%
    23:00 +6°C° 0 mm 8 mps 760 mmHg 62%

    Tomorrow, 26 May, Friday

    Time Temperature Precipitation Wind Pressure Humidity
    00:00 +5°C° 0 mm 9 mps 761 mmHg 67%
    01:00 +5°C° 0 mm 9 mps 761 mmHg 72%
    02:00 +5°C° 0 mm 9 mps 762 mmHg 77%
    03:00 +3°C° 0 mm 9 mps 763 mmHg 73%
    04:00 +4°C° 0 mm 8 mps 763 mmHg 69%
    05:00 +4°C° 0 mm 8 mps 764 mmHg 65%
    06:00 +2°C° 0 mm 8 mps 765 mmHg 65%
    07:00 +1°C° 0 mm 8 mps 766 mmHg 65%
    08:00 +1°C° 0 mm 8 mps 767 mmHg 66%
    09:00 +2°C° 0 mm 8 mps 767 mmHg 57%
    10:00 +4°C° 0 mm 8 mps 768 mmHg 49%
    11:00 +6°C° 0 mm 8 mps 769 mmHg 40%
    12:00 +6°C° 0 mm 7 mps 769 mmHg 37%
    13:00 +8°C° 0 mm 7 mps 769 mmHg 35%
    14:00 +8°C° 0 mm 6 mps 769 mmHg 32%
    15:00 +7°C° 0 mm 5 mps 769 mmHg 35%
    16:00 +6°C° 0 mm 4 mps 769 mmHg 39%
    17:00 +5°C° 0 mm 3 mps 769 mmHg 42%
    18:00 +6°C° 0 mm 2 mps 769 mmHg 43%
    19:00 +5°C° 0 mm 2 mps 770 mmHg 44%
    20:00 +6°C° 0 mm 1 mps 770 mmHg 46%
    21:00 +5°C° 0 mm 2 mps 770 mmHg 46%
    22:00 +4°C° 0 mm 3 mps 770 mmHg 46%
    23:00 +4°C° 0 mm 4 mps 770 mmHg 46%

    Day after tomorrow, 27 May, Saturday

    Time Temperature Precipitation Wind Pressure Humidity
    00:00 +4°C° 0 mm 4 mps 770 mmHg 50%
    01:00 +3°C° 0 mm 5 mps 770 mmHg 54%
    02:00 +3°C° 0 mm 6 mps 769 mmHg 58%
    03:00 +3°C° 0 mm 6 mps 769 mmHg 63%
    04:00 +3°C° 0 mm 7 mps 768 mmHg 67%
    05:00 +3°C° 0 mm 7 mps 768 mmHg 72%
    06:00 +3°C° 0 mm 7 mps 768 mmHg 72%
    07:00 +3°C° 0 mm 7 mps 768 mmHg 71%
    08:00 +3°C° 0 mm 7 mps 767 mmHg 71%
    09:00 +5°C° 0 mm 8 mps 767 mmHg 63%
    10:00 +7°C° 0 mm 8 mps 767 mmHg 55%
    11:00 +10°C° 0 mm 9 mps 767 mmHg 47%
    12:00 +11°C° 0 mm 9 mps 766 mmHg 43%
    13:00 +12°C° 0 mm 9 mps 765 mmHg 39%
    14:00 +13°C° 0 mm 9 mps 764 mmHg 35%
    15:00 +12°C° 0 mm 9 mps 764 mmHg 39%
    16:00 +11°C° 0 mm 8 mps 764 mmHg 43%
    17:00 +10°C° 0 mm 8 mps 763 mmHg 46%
    18:00 +10°C° 0 mm 9 mps 763 mmHg 50%
    19:00 +8°C° 0 mm 9 mps 763 mmHg 53%
    20:00 +8°C° 0 mm 10 mps 763 mmHg 57%
    21:00 +7°C° 0 mm 10 mps 763 mmHg 59%
    22:00 +7°C° 0 mm 10 mps 763 mmHg 61%
    23:00 +7°C° 0 mm 10 mps 763 mmHg 63%

    28 May, Sunday

    Time Temperature Precipitation Wind Pressure Humidity
    00:00 +6°C° 0 mm 9 mps 762 mmHg 65%
    01:00 +6°C° 0 mm 9 mps 762 mmHg 67%
    02:00 +6°C° 0 mm 8 mps 762 mmHg 69%
    03:00 +5°C° 0 mm 7 mps 761 mmHg 70%
    04:00 +5°C° 0 mm 6 mps 761 mmHg 70%
    05:00 +5°C° 0 mm 5 mps 761 mmHg 71%
    06:00 +5°C° 0 mm 5 mps 761 mmHg 70%
    07:00 +5°C° 0 mm 5 mps 761 mmHg 68%
    08:00 +5°C° 0 mm 4 mps 761 mmHg 67%
    09:00 +6°C° 0 mm 4 mps 761 mmHg 60%
    10:00 +8°C° 0 mm 4 mps 761 mmHg 53%
    11:00 +9°C° 0 mm 5 mps 761 mmHg 46%
    12:00 +11°C° 0 mm 4 mps 761 mmHg 43%
    13:00 +11°C° 0 mm 4 mps 761 mmHg 41%
    14:00 +12°C° 0 mm 4 mps 761 mmHg 39%
    15:00 +11°C° 0 mm 4 mps 761 mmHg 43%
    16:00 +11°C° 0 mm 4 mps 762 mmHg 48%
    17:00 +10°C° 0 mm 4 mps 762 mmHg 52%
    18:00 +8°C° 0 mm 4 mps 763 mmHg 59%
    19:00 +8°C° 0 mm 5 mps 763 mmHg 65%
    20:00 +8°C° 0 mm 5 mps 764 mmHg 72%
    21:00 +7°C° 0 mm 5 mps 764 mmHg 78%
    22:00 +7°C° 0 mm 5 mps 765 mmHg 84%
    23:00 +6°C° 0 mm 4 mps 765 mmHg 91%

    29 May, Monday

    Time Temperature Precipitation Wind Pressure Humidity
    00:00 +6°C° 0 mm 5 mps 765 mmHg 91%
    01:00 +6°C° 0 mm 5 mps 766 mmHg 91%
    02:00 +6°C° 0 mm 5 mps 766 mmHg 91%
    03:00 +6°C° 0 mm 5 mps 766 mmHg 90%
    04:00 +6°C° 0 mm 5 mps 767 mmHg 90%
    05:00 +6°C° 0 mm 5 mps 767 mmHg 89%
    06:00 +6°C° 0 mm 4 mps 767 mmHg 90%
    07:00 +5°C° 0 mm 3 mps 767 mmHg 91%
    08:00 +6°C° 0 mm 2 mps 768 mmHg 91%
    09:00 +7°C° 0 mm 2 mps 768 mmHg 85%
    10:00 +9°C° 0 mm 2 mps 768 mmHg 78%
    11:00 +10°C° 0 mm 3 mps 769 mmHg 71%
    12:00 +11°C° 0 mm 3 mps 768 mmHg 67%
    13:00 +11°C° 0 mm 3 mps 768 mmHg 62%
    14:00 +12°C° 0 mm 3 mps 767 mmHg 58%
    15:00 +11°C° 0 mm 3 mps 767 mmHg 61%
    16:00 +10°C° 0 mm 4 mps 767 mmHg 63%
    17:00 +10°C° 0 mm 4 mps 767 mmHg 66%
    18:00 +8°C° 0 mm 5 mps 766 mmHg 69%
    19:00 +8°C° 0 mm 6 mps 766 mmHg 71%
    20:00 +6°C° 0 mm 7 mps 766 mmHg 74%
    21:00 +6°C° 0 mm 7 mps 766 mmHg 70%
    22:00 +6°C° 0 mm 7 mps 766 mmHg 67%
    23:00 +6°C° 0 mm 8 mps 765 mmHg 64%

    30 May, Tuesday

    Time Temperature Precipitation Wind Pressure Humidity
    00:00 +6°C° 0 mm 8 mps 765 mmHg 61%
    01:00 +5°C° 0 mm 7 mps 764 mmHg 58%
    02:00 +5°C° 0 mm 7 mps 764 mmHg 55%
    03:00 +5°C° 0 mm 7 mps 763 mmHg 55%
    04:00 +4°C° 0 mm 6 mps 763 mmHg 55%
    05:00 +4°C° 0 mm 6 mps 762 mmHg 56%
    06:00 +5°C° 0 mm 5 mps 762 mmHg 55%
    07:00 +3°C° 0 mm 5 mps 762 mmHg 54%
    08:00 +4°C° 0 mm 4 mps 762 mmHg 53%
    09:00 +6°C° 0 mm 4 mps 762 mmHg 46%
    10:00 +8°C° 0 mm 4 mps 762 mmHg 40%
    11:00 +11°C° 0 mm 4 mps 761 mmHg 33%
    12:00 +12°C° 0 mm 3 mps 761 mmHg 31%
    13:00 +13°C° 0 mm 3 mps 760 mmHg 28%
    14:00 +15°C° 0 mm 2 mps 759 mmHg 26%
    15:00 +14°C° 0 mm 2 mps 759 mmHg 29%
    16:00 +13°C° 0 mm 2 mps 759 mmHg 31%
    17:00 +12°C° 0 mm 2 mps 759 mmHg 33%
    18:00 +11°C° 0 mm 3 mps 759 mmHg 34%
    19:00 +10°C° 0 mm 3 mps 760 mmHg 35%
    20:00 +10°C° 0 mm 4 mps 760 mmHg 35%
    21:00 +10°C° 0 mm 4 mps 760 mmHg 38%
    22:00 +10°C° 0 mm 4 mps 760 mmHg 40%
    23:00 +8°C° 0 mm 5 mps 760 mmHg 43%
    Show more